Home   Weather   Francistown   Past weeks

Flag for Botswana Past Weather in Francistown, Botswana — Yesterday and Last 2 Weeks

Now
77 °F

Clear.


Feels Like: 79 °F
Forecast: 70 / 90 °F
Wind: 14 mph from Southeast

Location: Francistown Airport

Current Time: Dec 5, 2016 at 8:43:00 pm

Latest Report: Dec 5, 2016 at 8:00 pm


Visibility: 10 mi

Pressure: 30.04 "Hg (26.82 "Hg at 989m altitude)

Humidity: 61%

Dew Point: 63 °F

Location of FrancistownLocation

Past Weather in Francistown — Graph

°F

Francistown Temperature Yesterday

Maximum temperature yesterday: 99 °F (at 2:00 pm)
Minimum temperature yesterday: 70 °F (at 6:00 am)
Average temperature yesterday: 90 °F

High & Low Weather Summary for the Past Weeks

 TemperatureHumidityPressure
High102 °F (Dec 1, 2:00 pm)94% (Nov 28, 6:00 am)30.39 "Hg (Nov 28, 6:00 am)
Low61 °F (Nov 28, 6:00 am)9% (Dec 1, 3:00 pm)29.86 "Hg (Dec 2, 3:00 pm)
Average84 °F39%30.04 "Hg
* Reported Nov 20 7:00 pm — Dec 5 7:00 pm, Francistown, Weather by CustomWeather, © 2016

Note: Actual official high and low records may vary slightly from our data, if they occured in-between our weather recording intervals... More about our weather records

Advertising

Francistown Weather History for the Previous 24 Hours

Scroll right to see more
 ConditionsComfort  
Time TempWeatherWind HumidityBarometerVisibility
7:00 pm
Mon, Dec 5
79 °FPassing clouds.14 mph54%30.04 "HgN/A
6:00 pm81 °FScattered clouds.15 mph51%30.01 "HgN/A
5:00 pm82 °FScattered clouds.14 mph48%30.01 "HgN/A
4:00 pm81 °FScattered clouds.15 mph51%30.01 "HgN/A
3:00 pm81 °FScattered clouds.16 mph51%30.04 "HgN/A
2:00 pm81 °FScattered clouds.16 mph51%30.07 "HgN/A
1:00 pm82 °FScattered clouds.18 mph45%30.07 "HgN/A
12:00 pm82 °FPassing clouds.16 mph45%30.12 "HgN/A
11:00 am81 °FPassing clouds.16 mph48%30.12 "HgN/A
10:00 am79 °FPassing clouds.16 mph54%30.12 "HgN/A
9:00 am75 °FSunny.15 mph57%30.18 "Hg10 mi
8:00 am73 °FSunny.21 mph57%30.18 "Hg10 mi
7:00 am72 °FSunny.18 mph69%30.15 "Hg10 mi
6:00 am72 °FSunny.10 mph69%30.12 "Hg10 mi
9:00 pm
Sun, Dec 4
90 °FClear.9 mph27%29.98 "Hg10 mi
8:00 pm91 °FClear.7 mph21%29.95 "Hg10 mi
Weather by CustomWeather, © 2016

See weather overviewHow to use our weather pages